sat.trackr.live / text

‹ back to catalog

HULIANWANG DIGUI-84

NORAD 65819 · 2025-220C

PAYLOAD ACTIVE UNKNOWN

§ Identity

Operator
Country
PRC
Launch date
2025-09-27
Launch site
TAISC
Launch vehicle
Mass (kg)
RCS (m²)

External: N2YO · Heavens-Above · Gunter

§ Orbital elements

Epoch: 2026-09-20T06:20:54.637728Z

Period
108.73 min
Inclination
86.4996°
Eccentricity
0.0001341
Mean motion
13.24411198 rev/d
Perigee alt
1,166.9 km
Apogee alt
1,168.9 km
Semi-major
7,546.1 km
B*
8.9176e-5
RAAN
11.6062°
Arg perigee
89.0939°
Mean anomaly
271.0348°
Rev number
4,750

§ Raw data

HULIANWANG DIGUI-841 65819U 25220C   26263.26452127  .00000053  00000+0  89176-4 0  99902 65819  86.4996  11.6062 0001341  89.0939 271.0348 13.24411198 47501

JSON: /api/v1/satellites/65819 · /tle

For live sub-satellite position, see the globe view (requires WebGL).

§ Visibility from observer

Set your observer location to see the next 7 days of passes ≥ 10°. The values pass through the URL so the page stays shareable.

No JS? Fill the form by hand. The geolocation button needs JavaScript.